STARLINK-11201, 60113

Orbit data source: Space-Track

STARLINK-11201, 60113 is a payload satellite owned by SpaceX/Seattle (US) in LEO that was launched on Mon, 24 Jun 2024 UTC via an FALCON 9 launch vehicle from the Air Force Western Test Range (AFWTR). Payload-class satellites include a variety of spacecraft equipped with specific instruments for various scientific and technological missions. These include communications satellites like Starlink; space stations such as the ISS; scientific satellites like the Hubble; Earth observation satellites from companies like Planet Labs, Umbra, and HawkEye 360; GPS; miniature CubeSats for education and research; and military/defense satellites.

Loading next visibility...
Identifier
60113, 2024-118A
Orbit
LEO
Last TLE update
17 hours ago
Origin
Manufacturer
SpaceX/Seattle
Mission
Operational spacecraft
Bus & Motor
STARLINK V2M, Unknown motor
Mass
730 kg wet, ~700 kg dry
Launch date (UTC)
2024-06-24 (1 year ago)
Launch vehicle
FALCON 9
Launch site
Air Force Western Test Range (AFWTR)
Object type
Payload
Rocket body
Debris
Shape & HBR
Unknown
Radar Cross Section
Large (>1 m²)

Expand to show TLE details & history

TLE from 17 hours ago
0 STARLINK-11201
1 60113U 24118A   25191.64825536  .00000483  00000-0  88358-5 0  9996
2 60113  53.1586 334.7594 0000459  72.3459 287.7609 15.69708956 59979
Epoch: 2025-07-10T15:33Z
TLE epoch observation values (Epoch: 2025-07-10T15:33:29.263Z)
Latitude
-0°
Longitude
172.57595°
Altitude
360.55 km
Speed
7.694 km/s
True Right ascension
22h 19m 02s
True Declination
0° 00' 00"
Sunlit
Object was in full shadow at epoch
Visualization orbit readout
Latitude
0.90627°
Longitude
169.7966°
Altitude
360.439 km
Speed
7.694 km/s
Apparent Right ascension
00h 47m 32s
Apparent Declination
-54° 09' 53"
Sunlit
Object is in full shadow
Visualization observer readout
Local Sidereal Time
20:39:49
Azimuth
147.102° SSE
Elevation
-17.992°
Doppler factor
1
Orbital elements
Apogee altitude
360.3 km
Perigee altitude
359.681 km
Semi-major axis
6,738.128 km
Eccentricity
0.00005
Inclination
53.1586°
RAAN
334.7594°
Arg. of periapsis
72.3459°
True anomaly
Unknown
Mean anomaly
287.7609°
Eccentric anomaly
Unknown
Mean motion
3.92405 °/min
Orbital period
91.74 mins
BSTAR
0.0000088358
Loading maneuver chart data...
Loading SW <> Apogee altitude chart data...
Loading historical data...
Loading historical data...
Loading historical data...
Loading historical data...
Loading historical data...
Loading historical data...
Loading historical data...

STARLINK-11201 Visibility forecast

Observer location: undefined°, undefined°

Span
Click to sort rows by Start time (UTC) header in descending order
Start Az.
Max El. time (UTC)
Max El. Az.
Max El.
End time (UTC)
End Az.
4 mins2025-07-11 11:35:17.659Z189.271° SSW2025-07-11 11:37:17.659Z138.424° SSE24.752°2025-07-11 11:39:17.659Z80.158° E
|